Time,TemperatureF,DewpointF,PressureIn,WindDirection,WindDirectionDegrees,WindSpeedMPH,WindSpeedGustMPH,Humidity,HourlyPrecipIn,Conditions,Clouds,dailyrainin,SoftwareType,DateUTC
2013-01-16 00:15:00,26.4,23.0,30.12,East,91,0.0,1.0,86,0.00,,,0.00,weatherlink.com 1.10,2013-01-16 05:15:00,
2013-01-16 00:30:00,26.4,23.0,30.11,SSE,147,0.0,2.0,86,0.00,,,0.00,weatherlink.com 1.10,2013-01-16 05:30:00,
2013-01-16 00:45:00,25.9,23.0,30.10,ENE,77,0.0,1.0,87,0.00,,,0.00,weatherlink.com 1.10,2013-01-16 05:45:00,
2013-01-16 01:00:00,25.4,22.0,30.09,ENE,65,1.0,1.0,88,0.00,,,0.00,weatherlink.com 1.10,2013-01-16 06:00:00,
2013-01-16 01:15:00,24.7,22.0,30.10,ENE,65,0.0,0.0,89,0.00,,,0.00,weatherlink.com 1.10,2013-01-16 06:15:00,
2013-01-16 01:30:00,24.3,22.0,30.10,ENE,65,0.0,1.0,90,0.00,,,0.00,weatherlink.com 1.10,2013-01-16 06:30:00,
2013-01-16 01:45:00,24.2,22.0,30.10,ENE,65,0.0,0.0,90,0.00,,,0.00,weatherlink.com 1.10,2013-01-16 06:45:00,
2013-01-16 02:00:00,23.8,22.0,30.09,ENE,65,0.0,0.0,91,0.00,,,0.00,weatherlink.com 1.10,2013-01-16 07:00:00,
2013-01-16 02:15:00,24.0,22.0,30.09,ENE,65,0.0,1.0,92,0.00,,,0.00,weatherlink.com 1.10,2013-01-16 07:15:00,
2013-01-16 02:30:00,24.2,23.0,30.09,ENE,65,0.0,1.0,93,0.00,,,0.00,weatherlink.com 1.10,2013-01-16 07:30:00,
2013-01-16 02:45:00,24.2,23.0,30.09,ENE,65,0.0,0.0,93,0.00,,,0.00,weatherlink.com 1.10,2013-01-16 07:45:00,
2013-01-16 03:00:00,24.3,23.0,30.08,ENE,65,0.0,0.0,93,0.00,,,0.00,weatherlink.com 1.10,2013-01-16 08:00:00,
2013-01-16 03:15:00,24.2,23.0,30.08,ENE,65,0.0,0.0,93,0.00,,,0.00,weatherlink.com 1.10,2013-01-16 08:15:00,
2013-01-16 03:30:00,23.9,22.0,30.09,ENE,65,0.0,0.0,93,0.00,,,0.00,weatherlink.com 1.10,2013-01-16 08:30:00,
2013-01-16 03:45:00,24.1,22.0,30.08,ENE,65,0.0,1.0,93,0.00,,,0.00,weatherlink.com 1.10,2013-01-16 08:45:00,
2013-01-16 04:00:00,24.7,23.0,30.07,ENE,65,0.0,0.0,94,0.00,,,0.00,weatherlink.com 1.10,2013-01-16 09:00:00,
2013-01-16 04:15:00,25.1,23.0,30.05,ENE,61,0.0,0.0,93,0.00,,,0.00,weatherlink.com 1.10,2013-01-16 09:15:00,
2013-01-16 04:30:00,25.2,24.0,30.06,ENE,61,0.0,0.0,93,0.00,,,0.00,weatherlink.com 1.10,2013-01-16 09:30:00,
2013-01-16 04:45:00,25.4,24.0,30.07,WNW,290,0.0,1.0,93,0.00,,,0.00,weatherlink.com 1.10,2013-01-16 09:45:00,
2013-01-16 05:00:00,25.6,24.0,30.05,WNW,290,0.0,1.0,93,0.00,,,0.00,weatherlink.com 1.10,2013-01-16 10:00:00,
2013-01-16 05:15:00,25.8,24.0,30.05,NW,312,0.0,2.0,93,0.00,,,0.00,weatherlink.com 1.10,2013-01-16 10:15:00,
2013-01-16 05:30:00,25.5,24.0,30.04,WNW,287,0.0,1.0,92,0.00,,,0.00,weatherlink.com 1.10,2013-01-16 10:30:00,
2013-01-16 05:45:00,25.2,23.0,30.04,WNW,286,0.0,0.0,92,0.00,,,0.00,weatherlink.com 1.10,2013-01-16 10:45:00,
2013-01-16 06:00:00,24.8,23.0,30.05,WNW,287,0.0,0.0,92,0.00,,,0.00,weatherlink.com 1.10,2013-01-16 11:00:00,
2013-01-16 06:15:00,24.8,23.0,30.04,WNW,287,0.0,0.0,93,0.00,,,0.00,weatherlink.com 1.10,2013-01-16 11:15:00,
2013-01-16 06:30:00,25.0,23.0,30.04,WNW,287,0.0,0.0,93,0.00,,,0.00,weatherlink.com 1.10,2013-01-16 11:30:00,
2013-01-16 06:45:00,25.1,23.0,30.03,WNW,287,0.0,0.0,93,0.00,,,0.00,weatherlink.com 1.10,2013-01-16 11:45:00,
2013-01-16 07:00:00,25.3,24.0,30.03,WNW,286,0.0,0.0,93,0.00,,,0.00,weatherlink.com 1.10,2013-01-16 12:00:00,
2013-01-16 07:15:00,25.3,24.0,30.03,WNW,286,0.0,1.0,93,0.00,,,0.00,weatherlink.com 1.10,2013-01-16 12:15:00,
2013-01-16 07:30:00,25.1,23.0,30.03,West,277,0.0,1.0,93,0.00,,,0.00,weatherlink.com 1.10,2013-01-16 12:30:00,
2013-01-16 07:45:00,24.7,23.0,30.03,West,276,0.0,1.0,93,0.00,,,0.00,weatherlink.com 1.10,2013-01-16 12:45:00,
2013-01-16 08:00:00,25.0,24.0,30.02,West,277,0.0,0.0,94,0.00,,,0.00,weatherlink.com 1.10,2013-01-16 13:00:00,
2013-01-16 08:15:00,25.0,23.0,30.02,West,269,0.0,1.0,93,0.00,,,0.00,weatherlink.com 1.10,2013-01-16 13:15:00,
2013-01-16 08:30:00,25.3,24.0,30.04,WNW,291,0.0,1.0,94,0.00,,,0.00,weatherlink.com 1.10,2013-01-16 13:30:00,
2013-01-16 08:45:00,25.7,24.0,30.04,West,277,0.0,2.0,93,0.00,,,0.00,weatherlink.com 1.10,2013-01-16 13:45:00,
2013-01-16 09:00:00,25.9,24.0,30.04,ESE,117,0.0,1.0,93,0.00,,,0.00,weatherlink.com 1.10,2013-01-16 14:00:00,
2013-01-16 09:15:00,26.3,24.0,30.05,NNE,25,0.0,2.0,92,0.00,,,0.00,weatherlink.com 1.10,2013-01-16 14:15:00,
2013-01-16 09:30:00,26.7,25.0,30.07,SSE,162,0.0,3.0,92,0.00,,,0.00,weatherlink.com 1.10,2013-01-16 14:30:00,
2013-01-16 09:45:00,27.1,25.0,30.06,ESE,113,0.0,3.0,91,0.00,,,0.00,weatherlink.com 1.10,2013-01-16 14:45:00,
2013-01-16 10:00:00,28.6,26.0,30.06,West,270,0.0,6.0,90,0.00,,,0.00,weatherlink.com 1.10,2013-01-16 15:00:00,
2013-01-16 10:15:00,28.4,25.0,30.06,East,101,1.0,8.0,88,0.00,,,0.00,weatherlink.com 1.10,2013-01-16 15:15:00,
2013-01-16 10:31:00,29.2,26.0,30.05,ESE,112,3.0,6.0,86,0.00,,,0.00,weatherlink.com 1.10,2013-01-16 15:31:00,
2013-01-16 10:46:00,29.4,25.0,30.05,WSW,257,5.0,7.0,84,0.00,,,0.00,weatherlink.com 1.10,2013-01-16 15:46:00,
2013-01-16 11:01:00,29.8,25.0,30.05,WNW,296,3.0,8.0,83,0.00,,,0.00,weatherlink.com 1.10,2013-01-16 16:01:00,
2013-01-16 11:16:00,30.1,26.0,30.04,West,277,3.0,6.0,83,0.00,,,0.00,weatherlink.com 1.10,2013-01-16 16:16:00,
2013-01-16 11:31:00,30.7,26.0,30.04,WSW,246,2.0,8.0,83,0.00,,,0.00,weatherlink.com 1.10,2013-01-16 16:31:00,
2013-01-16 11:46:00,31.9,26.0,30.04,NE,34,3.0,6.0,80,0.00,,,0.00,weatherlink.com 1.10,2013-01-16 16:46:00,
2013-01-16 12:01:00,32.1,26.0,30.03,SSE,165,2.0,8.0,78,0.00,,,0.00,weatherlink.com 1.10,2013-01-16 17:01:00,
2013-01-16 12:16:00,32.1,26.0,30.02,WSW,242,3.0,9.0,78,0.00,,,0.00,weatherlink.com 1.10,2013-01-16 17:16:00,
2013-01-16 12:31:00,32.4,25.0,30.01,South,176,1.0,6.0,75,0.00,,,0.00,weatherlink.com 1.10,2013-01-16 17:31:00,
2013-01-16 12:46:00,33.0,26.0,30.01,WNW,287,3.0,6.0,76,0.00,,,0.00,weatherlink.com 1.10,2013-01-16 17:46:00,
2013-01-16 13:01:00,33.5,26.0,30.00,East,86,2.0,7.0,73,0.00,,,0.00,weatherlink.com 1.10,2013-01-16 18:01:00,
2013-01-16 13:16:00,33.8,24.0,30.00,WNW,288,1.0,8.0,68,0.00,,,0.00,weatherlink.com 1.10,2013-01-16 18:16:00,
2013-01-16 13:31:00,34.6,26.0,29.99,WNW,290,5.0,6.0,72,0.00,,,0.00,weatherlink.com 1.10,2013-01-16 18:31:00,
2013-01-16 13:46:00,35.2,25.0,29.98,WNW,302,2.0,5.0,67,0.00,,,0.00,weatherlink.com 1.10,2013-01-16 18:46:00,
2013-01-16 14:01:00,35.0,24.0,29.98,NW,312,1.0,7.0,64,0.00,,,0.00,weatherlink.com 1.10,2013-01-16 19:01:00,
2013-01-16 14:16:00,35.5,25.0,29.98,SSE,168,2.0,8.0,66,0.00,,,0.00,weatherlink.com 1.10,2013-01-16 19:16:00,
2013-01-16 14:31:00,35.1,24.0,29.97,SSE,162,1.0,7.0,64,0.00,,,0.00,weatherlink.com 1.10,2013-01-16 19:31:00,
2013-01-16 14:46:00,35.3,24.0,29.98,ESE,108,2.0,6.0,64,0.00,,,0.00,weatherlink.com 1.10,2013-01-16 19:46:00,
2013-01-16 15:01:00,35.4,24.0,29.98,South,185,3.0,8.0,63,0.00,,,0.00,weatherlink.com 1.10,2013-01-16 20:01:00,
2013-01-16 15:16:00,34.9,26.0,29.97,SE,141,1.0,7.0,70,0.00,,,0.00,weatherlink.com 1.10,2013-01-16 20:16:00,
2013-01-16 15:31:00,34.6,26.0,29.98,SE,143,1.0,8.0,71,0.00,,,0.00,weatherlink.com 1.10,2013-01-16 20:31:00,
2013-01-16 15:46:00,34.4,26.0,29.97,SSE,156,3.0,6.0,72,0.00,,,0.00,weatherlink.com 1.10,2013-01-16 20:46:00,
2013-01-16 16:01:00,34.2,26.0,29.97,South,170,0.0,6.0,72,0.00,,,0.00,weatherlink.com 1.10,2013-01-16 21:01:00,
2013-01-16 16:16:00,33.6,26.0,29.98,South,186,1.0,7.0,74,0.00,,,0.00,weatherlink.com 1.10,2013-01-16 21:16:00,
2013-01-16 16:46:00,32.7,26.0,30.00,East,90,3.0,5.0,77,0.00,,,0.00,weatherlink.com 1.10,2013-01-16 21:46:00,
2013-01-16 17:01:00,32.3,26.0,30.00,South,177,4.0,7.0,77,0.00,,,0.00,weatherlink.com 1.10,2013-01-16 22:01:00,
2013-01-16 17:16:00,31.9,26.0,30.01,SE,136,1.0,5.0,78,0.00,,,0.00,weatherlink.com 1.10,2013-01-16 22:16:00,
2013-01-16 17:31:00,31.4,25.0,30.01,SE,143,1.0,6.0,78,0.00,,,0.00,weatherlink.com 1.10,2013-01-16 22:31:00,
2013-01-16 17:46:00,31.0,25.0,30.02,ESE,115,1.0,6.0,79,0.00,,,0.00,weatherlink.com 1.10,2013-01-16 22:46:00,
2013-01-16 18:01:00,30.8,25.0,30.03,SE,133,4.0,5.0,79,0.00,,,0.00,weatherlink.com 1.10,2013-01-16 23:01:00,
2013-01-16 18:16:00,30.6,25.0,30.02,South,176,2.0,7.0,78,0.00,,,0.00,weatherlink.com 1.10,2013-01-16 23:16:00,
2013-01-16 18:31:00,30.4,25.0,30.04,SSE,148,2.0,6.0,80,0.00,,,0.00,weatherlink.com 1.10,2013-01-16 23:31:00,
2013-01-16 18:46:00,30.3,25.0,30.02,SSE,163,2.0,6.0,80,0.00,,,0.00,weatherlink.com 1.10,2013-01-16 23:46:00,
2013-01-16 19:01:00,30.3,24.0,30.02,South,180,1.0,6.0,78,0.00,,,0.00,weatherlink.com 1.10,2013-01-17 00:01:00,
2013-01-16 19:16:00,30.5,24.0,30.02,SE,146,2.0,6.0,76,0.00,,,0.00,weatherlink.com 1.10,2013-01-17 00:16:00,
2013-01-16 19:31:00,30.5,24.0,30.03,West,269,1.0,6.0,76,0.00,,,0.00,weatherlink.com 1.10,2013-01-17 00:31:00,
2013-01-16 19:46:00,30.6,24.0,30.03,WSW,257,3.0,6.0,75,0.00,,,0.00,weatherlink.com 1.10,2013-01-17 00:46:00,
2013-01-16 20:01:00,30.5,24.0,30.04,East,97,3.0,5.0,76,0.00,,,0.00,weatherlink.com 1.10,2013-01-17 01:01:00,
2013-01-16 20:16:00,30.7,24.0,30.04,SSE,158,2.0,5.0,75,0.00,,,0.00,weatherlink.com 1.10,2013-01-17 01:16:00,
2013-01-16 20:31:00,31.1,24.0,30.04,SE,132,1.0,6.0,74,0.00,,,0.00,weatherlink.com 1.10,2013-01-17 01:31:00,
2013-01-16 20:46:00,31.4,24.0,30.05,SE,136,2.0,6.0,73,0.00,,,0.00,weatherlink.com 1.10,2013-01-17 01:46:00,
2013-01-16 21:01:00,31.6,24.0,30.05,West,261,2.0,8.0,73,0.00,,,0.00,weatherlink.com 1.10,2013-01-17 02:01:00,
2013-01-16 21:16:00,31.6,24.0,30.06,West,277,3.0,9.0,74,0.00,,,0.00,weatherlink.com 1.10,2013-01-17 02:16:00,
2013-01-16 21:31:00,31.7,24.0,30.06,East,87,4.0,6.0,74,0.00,,,0.00,weatherlink.com 1.10,2013-01-17 02:31:00,
2013-01-16 21:46:00,31.8,24.0,30.06,SSE,154,2.0,5.0,74,0.00,,,0.00,weatherlink.com 1.10,2013-01-17 02:46:00,
2013-01-16 22:01:00,31.7,25.0,30.07,SE,145,1.0,8.0,75,0.00,,,0.00,weatherlink.com 1.10,2013-01-17 03:01:00,
2013-01-16 22:16:00,31.6,25.0,30.07,ESE,117,2.0,5.0,75,0.00,,,0.00,weatherlink.com 1.10,2013-01-17 03:16:00,
2013-01-16 22:31:00,31.7,25.0,30.07,SW,229,1.0,6.0,76,0.00,,,0.00,weatherlink.com 1.10,2013-01-17 03:31:00,
2013-01-16 22:46:00,31.8,25.0,30.07,West,273,3.0,4.0,76,0.00,,,0.00,weatherlink.com 1.10,2013-01-17 03:46:00,
2013-01-16 23:02:00,31.8,25.0,30.07,SW,223,0.0,5.0,76,0.00,,,0.00,weatherlink.com 1.10,2013-01-17 04:02:00,
2013-01-16 23:17:00,31.8,25.0,30.08,South,187,0.0,7.0,76,0.00,,,0.00,weatherlink.com 1.10,2013-01-17 04:17:00,
2013-01-16 23:32:00,31.9,25.0,30.08,SSW,210,1.0,5.0,77,0.00,,,0.00,weatherlink.com 1.10,2013-01-17 04:32:00,
2013-01-16 23:47:00,32.0,26.0,30.09,West,264,3.0,7.0,77,0.00,,,0.00,weatherlink.com 1.10,2013-01-17 04:47:00,